Voltar ao catálogo

ONEWEB-0698

AtivoComunicaçõesPO
NORAD 61604·PAYLOAD·🇬🇧 United Kingdom

Lançado Oct 20, 2024 de Vandenberg Space Force Base

Loading…

Próximas Passagens (próximas 24 horas)

TLE

AtualizadoSource: CelesTrak SupGP

Época: Sep 14, 2026, 15:29 UTC

1 61604C 24188L   26257.64564074  .00002081  00000+0  58793-2 0  2579
2 61604  87.8960   3.2929 0001859  66.4990  42.9844 13.11409749    10

Acompanhe ONEWEB-0698 em tempo real com AllMySat

Download on the App Store